Total_Precipitation_Accumulation
0.00 0.00 0.00 0.00 0.00 0.00 0.00 0.00 0.00 0.02 0.04 0.05 0.08 0.06 0.09 0.18 0.32 0.50 0.42 0.37 0.23 0.23 0.09 0.04 0.11 0.03 0.00 0.00 0.00 0.00 0.00 0.00 0.00 0.00 0.00 0.00 0.00 0.00 0.00 0.00 0.00 0.00 0.00 0.00 0.00 0.00 0.00 0.00 0.00
0.00 0.00 0.00 0.00 0.00 0.00 0.00 0.00 0.02 0.06 0.15 0.16 0.18 0.20 0.18 0.37 0.32 0.31 0.57 0.75 0.31 0.29 0.09 0.05 0.10 0.07 0.02 0.03 0.03 0.01 0.00 0.00 0.00 0.00 0.00 0.00 0.00 0.00 0.00 0.00 0.00 0.00 0.00 0.00 0.00 0.00 0.00 0.00 0.00
0.00 0.00 0.00 0.00 0.00 0.00 0.00 0.00 0.01 0.06 0.11 0.15 0.16 0.16 0.24 0.33 0.36 0.59 0.59 0.61 0.46 0.39 0.17 0.08 0.10 0.16 0.15 0.19 0.13 0.04 0.00 0.00 0.00 0.00 0.00 0.00 0.00 0.00 0.00 0.00 0.00 0.00 0.00 0.00 0.00 0.00 0.00 0.00 0.00
0.00 0.00 0.00 0.00 0.00 0.00 0.00 0.03 0.04 0.07 0.12 0.12 0.13 0.22 0.24 0.35 0.41 0.30 0.45 0.91 1.13 0.95 0.66 0.26 0.23 0.34 0.37 0.25 0.16 0.03 0.00 0.00 0.00 0.00 0.00 0.00 0.00 0.00 0.00 0.00 0.00 0.00 0.00 0.00 0.00 0.00 0.00 0.00 0.00
0.00 0.00 0.00 0.00 0.00 0.01 0.00 0.03 0.18 0.34 0.41 0.32 0.14 0.11 0.15 0.30 0.43 0.55 1.08 1.60 1.80 1.87 1.66 0.79 0.54 0.46 0.46 0.28 0.11 0.01 0.00 0.00 0.00 0.00 0.00 0.00 0.00 0.00 0.00 0.00 0.00 0.00 0.00 0.00 0.00 0.00 0.00 0.00 0.00
0.00 0.00 0.00 0.00 0.00 0.00 0.01 0.05 0.16 0.39 0.41 0.23 0.05 0.05 0.20 0.42 0.37 0.70 1.10 2.05 2.66 2.33 1.98 1.73 1.37 1.12 0.56 0.24 0.03 0.00 0.00 0.00 0.00 0.00 0.00 0.00 0.00 0.00 0.00 0.00 0.00 0.00 0.00 0.00 0.00 0.00 0.00 0.00 0.00
0.00 0.00 0.00 0.00 0.00 0.00 0.01 0.07 0.31 0.20 0.07 0.10 0.11 0.17 0.26 0.54 0.48 0.64 1.18 1.75 2.67 4.00 3.93 3.83 2.65 1.46 0.60 0.04 0.00 0.00 0.00 0.00 0.00 0.00 0.00 0.00 0.00 0.00 0.00 0.00 0.00 0.00 0.00 0.00 0.00 0.00 0.00 0.00 0.00
0.00 0.00 0.00 0.00 0.00 0.03 0.08 0.15 0.16 0.07 0.14 0.16 0.11 0.23 0.53 0.78 0.56 0.68 1.62 2.21 3.57 6.31 5.63 4.14 3.24 1.71 0.38 0.03 0.00 0.00 0.00 0.00 0.00 0.00 0.00 0.00 0.00 0.00 0.00 0.00 0.00 0.00 0.00 0.00 0.00 0.00 0.00 0.00 0.00
0.00 0.00 0.00 0.00 0.02 0.13 0.21 0.32 0.21 0.05 0.01 0.12 0.29 0.32 0.62 0.52 0.27 0.35 0.97 1.45 2.37 4.09 4.81 4.03 2.09 1.19 0.23 0.04 0.00 0.00 0.00 0.00 0.00 0.00 0.00 0.00 0.00 0.00 0.00 0.00 0.00 0.00 0.00 0.00 0.00 0.00 0.00 0.00 0.00
0.00 0.00 0.00 0.00 0.01 0.12 0.16 0.03 0.10 0.07 0.01 0.09 0.50 0.99 0.56 0.29 0.22 0.37 0.51 0.76 0.75 0.91 1.65 2.93 1.61 0.62 0.16 0.06 0.02 0.00 0.00 0.00 0.00 0.00 0.00 0.00 0.00 0.00 0.00 0.00 0.00 0.00 0.00 0.00 0.00 0.00 0.00 0.00 0.00
0.00 0.00 0.00 0.00 0.01 0.11 0.03 0.01 0.02 0.03 0.03 0.05 0.83 1.16 0.62 0.40 0.35 0.62 0.62 0.47 0.30 0.23 0.30 0.75 0.79 0.64 0.26 0.10 0.03 0.00 0.00 0.00 0.00 0.00 0.00 0.00 0.00 0.00 0.00 0.00 0.00 0.00 0.00 0.00 0.00 0.00 0.00 0.00 0.00
0.00 0.00 0.00 0.00 0.00 0.02 0.04 0.06 0.03 0.06 0.44 0.22 0.28 0.39 0.47 0.61 0.40 0.43 0.55 0.16 0.06 0.06 0.10 0.13 0.25 0.19 0.11 0.06 0.02 0.00 0.00 0.00 0.01 0.00 0.00 0.00 0.01 0.00 0.00 0.00 0.00 0.00 0.00 0.00 0.00 0.00 0.00 0.00 0.00
0.00 0.00 0.00 0.01 0.01 0.01 0.01 0.05 0.02 0.03 0.03 0.06 0.16 0.20 0.38 0.45 0.26 0.12 0.17 0.06 0.02 0.02 0.04 0.04 0.05 0.04 0.03 0.03 0.02 0.01 0.02 0.08 0.11 0.05 0.04 0.01 0.02 0.03 0.00 0.00 0.00 0.00 0.00 0.00 0.00 0.00 0.00 0.00 0.00
0.00 0.00 0.00 0.02 0.00 0.00 0.00 0.00 0.02 0.06 0.06 0.06 0.04 0.09 0.26 0.18 0.10 0.25 0.21 0.02 0.01 0.01 0.01 0.04 0.07 0.04 0.07 0.01 0.03 0.10 0.11 0.10 0.14 0.11 0.15 0.10 0.06 0.03 0.01 0.00 0.01 0.01 0.01 0.00 0.00 0.00 0.00 0.00 0.00
0.00 0.00 0.00 0.00 0.01 0.00 0.00 0.00 0.00 0.05 0.05 0.02 0.01 0.04 0.12 0.04 0.12 0.16 0.02 0.00 0.00 0.01 0.01 0.17 0.51 0.12 0.16 0.10 0.18 0.18 0.15 0.12 0.20 0.29 0.37 0.31 0.15 0.03 0.01 0.04 0.03 0.01 0.00 0.00 0.00 0.00 0.00 0.00 0.00
0.00 0.00 0.00 0.00 0.01 0.00 0.00 0.00 0.00 0.01 0.02 0.02 0.02 0.02 0.02 0.02 0.03 0.01 0.01 0.00 0.00 0.00 0.02 0.37 0.95 0.51 0.44 0.33 0.37 0.50 0.27 0.15 0.15 0.27 0.32 0.18 0.08 0.04 0.03 0.01 0.00 0.00 0.00 0.00 0.00 0.00 0.00 0.00 0.00
0.00 0.00 0.00 0.00 0.00 0.00 0.00 0.00 0.00 0.01 0.02 0.01 0.01 0.00 0.00 0.00 0.01 0.02 0.04 0.03 0.01 0.00 0.07 0.44 0.77 0.75 0.82 0.52 0.51 0.36 0.25 0.16 0.15 0.16 0.11 0.12 0.07 0.02 0.01 0.00 0.00 0.00 0.00 0.00 0.00 0.00 0.00 0.00 0.00
0.00 0.00 0.00 0.01 0.02 0.00 0.00 0.00 0.00 0.00 0.03 0.01 0.01 0.00 0.00 0.00 0.00 0.03 0.08 0.04 0.02 0.02 0.24 0.63 0.66 0.81 0.75 0.44 0.23 0.14 0.14 0.06 0.11 0.09 0.08 0.07 0.03 0.01 0.00 0.00 0.00 0.00 0.00 0.00 0.00 0.00 0.00 0.00 0.00
0.00 0.00 0.00 0.00 0.00 0.00 0.00 0.00 0.00 0.00 0.01 0.01 0.03 0.01 0.01 0.00 0.01 0.04 0.07 0.08 0.05 0.06 0.26 0.38 0.56 0.58 0.27 0.14 0.14 0.12 0.08 0.08 0.09 0.09 0.06 0.03 0.01 0.00 0.00 0.00 0.00 0.00 0.00 0.00 0.00 0.00 0.00 0.00 0.00
0.00 0.00 0.00 0.00 0.00 0.00 0.00 0.00 0.00 0.00 0.00 0.00 0.00 0.00 0.00 0.00 0.00 0.01 0.03 0.05 0.07 0.14 0.36 0.46 0.31 0.16 0.04 0.07 0.07 0.04 0.02 0.03 0.04 0.07 0.02 0.01 0.01 0.00 0.00 0.00 0.00 0.00 0.00 0.00 0.00 0.00 0.00 0.00 0.00
0.00 0.00 0.00 0.00 0.00 0.00 0.00 0.00 0.00 0.00 0.00 0.00 0.00 0.00 0.00 0.00 0.02 0.02 0.04 0.03 0.05 0.07 0.11 0.23 0.13 0.06 0.01 0.02 0.01 0.01 0.01 0.01 0.06 0.07 0.08 0.04 0.02 0.00 0.00 0.00 0.00 0.00 0.00 0.00 0.00 0.00 0.00 0.00 0.00
0.00 0.00 0.00 0.00 0.00 0.00 0.00 0.00 0.02 0.01 0.00 0.00 0.00 0.01 0.00 0.00 0.00 0.00 0.00 0.00 0.03 0.03 0.05 0.22 0.13 0.05 0.03 0.03 0.00 0.02 0.06 0.03 0.04 0.04 0.03 0.02 0.01 0.00 0.00 0.00 0.00 0.00 0.00 0.00 0.00 0.00 0.00 0.00 0.00
0.01 0.00 0.00 0.00 0.00 0.05 0.02 0.01 0.03 0.02 0.00 0.00 0.00 0.00 0.00 0.00 0.01 0.01 0.01 0.00 0.00 0.06 0.08 0.19 0.15 0.15 0.08 0.08 0.11 0.19 0.14 0.12 0.11 0.03 0.01 0.02 0.02 0.02 0.01 0.00 0.00 0.00 0.00 0.00 0.00 0.00 0.00 0.01 0.01
0.00 0.00 0.00 0.00 0.00 0.01 0.01 0.02 0.03 0.02 0.01 0.04 0.02 0.00 0.00 0.00 0.02 0.02 0.01 0.01 0.01 0.02 0.11 0.18 0.13 0.20 0.22 0.26 0.19 0.16 0.13 0.08 0.08 0.03 0.02 0.01 0.01 0.02 0.02 0.01 0.00 0.00 0.00 0.00 0.00 0.02 0.02 0.00 0.00
0.00 0.00 0.00 0.04 0.02 0.01 0.03 0.03 0.05 0.01 0.06 0.16 0.09 0.00 0.00 0.00 0.00 0.01 0.00 0.00 0.02 0.02 0.15 0.18 0.15 0.20 0.22 0.28 0.14 0.16 0.17 0.12 0.12 0.08 0.06 0.05 0.07 0.06 0.03 0.01 0.00 0.00 0.01 0.02 0.02 0.01 0.01 0.01 0.00
0.00 0.00 0.00 0.07 0.03 0.01 0.02 0.02 0.01 0.00 0.00 0.00 0.00 0.00 0.00 0.00 0.00 0.00 0.00 0.01 0.08 0.07 0.12 0.26 0.23 0.30 0.22 0.14 0.14 0.16 0.24 0.29 0.30 0.20 0.14 0.09 0.06 0.03 0.01 0.01 0.02 0.02 0.02 0.01 0.01 0.01 0.02 0.01 0.01
0.00 0.00 0.00 0.00 0.00 0.00 0.00 0.01 0.00 0.00 0.00 0.00 0.00 0.00 0.00 0.00 0.00 0.00 0.00 0.01 0.06 0.10 0.12 0.16 0.12 0.24 0.23 0.24 0.21 0.11 0.12 0.17 0.16 0.15 0.08 0.05 0.03 0.01 0.01 0.02 0.02 0.03 0.02 0.02 0.03 0.05 0.04 0.04 0.03
0.00 0.00 0.00 0.00 0.00 0.00 0.00 0.00 0.01 0.00 0.01 0.00 0.00 0.00 0.00 0.00 0.00 0.00 0.00 0.00 0.01 0.03 0.05 0.15 0.06 0.02 0.10 0.19 0.20 0.11 0.09 0.12 0.11 0.09 0.09 0.07 0.04 0.02 0.01 0.02 0.02 0.01 0.02 0.03 0.03 0.02 0.03 0.03 0.03
0.00 0.00 0.00 0.00 0.00 0.00 0.00 0.00 0.00 0.00 0.00 0.00 0.00 0.00 0.00 0.00 0.00 0.00 0.00 0.00 0.00 0.00 0.00 0.00 0.01 0.01 0.02 0.04 0.05 0.05 0.10 0.15 0.17 0.19 0.12 0.07 0.04 0.02 0.01 0.01 0.01 0.01 0.01 0.01 0.02 0.04 0.06 0.05 0.04
0.00 0.01 0.03 0.00 0.00 0.00 0.00 0.00 0.00 0.00 0.00 0.00 0.00 0.00 0.00 0.00 0.00 0.00 0.00 0.00 0.00 0.00 0.00 0.01 0.02 0.03 0.06 0.08 0.10 0.11 0.13 0.13 0.13 0.12 0.09 0.05 0.02 0.01 0.00 0.01 0.00 0.00 0.01 0.03 0.05 0.05 0.04 0.05 0.02